| time (UTC) | temp F | wind direction | speed knots | gust knots | rain 1hr in | rain 24hr in | rain mn in | humidity % | barometer mb |
| 20260831060058 | 62 | 29 | 0.0 | 0.0 | 0.00 | 0.45 | 0.00 | 82 | 1010.8 |
| 20260831054558 | 63 | 28 | 0.0 | 0.0 | 0.00 | 0.45 | 0.45 | 82 | 1010.8 |
| 20260831053057 | 63 | 28 | 0.0 | 0.9 | 0.00 | 0.45 | 0.45 | 83 | 1010.4 |
| 20260831051601 | 62 | 29 | 0.0 | 0.9 | 0.00 | 0.45 | 0.45 | 83 | 1010.5 |
| 20260831050055 | 63 | 29 | 0.0 | 0.9 | 0.00 | 0.45 | 0.45 | 83 | 1010.4 |
| 20260831044606 | 63 | 29 | 0.0 | 0.9 | 0.00 | 0.45 | 0.45 | 82 | 1010.5 |
| 20260831043052 | 63 | 29 | 0.9 | 3.5 | 0.00 | 0.45 | 0.45 | 82 | 1010.5 |
| 20260831041553 | 63 | 348 | 3.5 | 5.2 | 0.00 | 0.45 | 0.45 | 81 | 1010.6 |
| 20260831040052 | 64 | 53 | 0.0 | 0.9 | 0.00 | 0.45 | 0.45 | 79 | 1010.5 |
| 20260831034551 | 64 | 53 | 0.0 | 0.9 | 0.00 | 0.45 | 0.45 | 78 | 1010.5 |
| 20260831033048 | 65 | 53 | 0.0 | 0.9 | 0.00 | 0.45 | 0.45 | 78 | 1010.1 |
| 20260831031546 | 65 | 53 | 0.0 | 1.7 | 0.00 | 0.45 | 0.45 | 78 | 1009.9 |
| 20260831030045 | 65 | 53 | 0.0 | 1.7 | 0.00 | 0.45 | 0.45 | 76 | 1009.4 |
| 20260831024545 | 65 | 53 | 2.6 | 5.2 | 0.00 | 0.45 | 0.45 | 75 | 1008.9 |
| 20260831023044 | 65 | 30 | 3.5 | 5.2 | 0.00 | 0.45 | 0.45 | 76 | 1008.8 |
| 20260831021513 | 65 | 51 | 0.9 | 4.3 | 0.00 | 0.45 | 0.45 | 80 | 1008.9 |
| 20260831020012 | 65 | 319 | 0.0 | 0.0 | 0.00 | 0.45 | 0.45 | 80 | 1008.4 |
| 20260831013004 | 65 | 320 | 0.0 | 1.7 | 0.00 | 0.45 | 0.45 | 79 | 1007.9 |
| 20260831011505 | 65 | 318 | 2.6 | 4.3 | 0.00 | 0.45 | 0.45 | 79 | 1008.0 |
| 20260831010002 | 66 | 323 | 1.7 | 5.2 | 0.00 | 0.45 | 0.45 | 77 | 1008.5 |
| 20260831004502 | 67 | 19 | 2.6 | 7.8 | 0.00 | 0.45 | 0.45 | 75 | 1008.7 |
| 20260831003006 | 68 | 11 | 12.2 | 17.4 | 0.00 | 0.45 | 0.45 | 69 | 1009.7 |
| 20260831001601 | 68 | 323 | 0.0 | 1.7 | 0.00 | 0.45 | 0.45 | 75 | 1010.0 |
| 20260831000100 | 68 | 17 | 2.6 | 7.8 | 0.00 | 0.45 | 0.45 | 74 | 1008.7 |
| 20260830234559 | 69 | 341 | 4.3 | 7.8 | 0.00 | 0.45 | 0.45 | 73 | 1008.2 |
| 20260830233105 | 69 | 49 | 7.0 | 9.6 | 0.01 | 0.45 | 0.45 | 73 | 1007.8 |
| 20260830231559 | 68 | 197 | 0.0 | 1.7 | 0.01 | 0.45 | 0.45 | 78 | 1008.2 |
| 20260830230057 | 68 | 77 | 0.0 | 0.9 | 0.01 | 0.45 | 0.45 | 82 | 1007.7 |
| 20260830224558 | 68 | 38 | 0.0 | 0.9 | 0.03 | 0.46 | 0.45 | 81 | 1007.4 |
| 20260830223110 | 68 | 42 | 2.6 | 10.4 | 0.24 | 0.45 | 0.44 | 77 | 1007.2 |
| 20260830221556 | 68 | 69 | 4.3 | 13.9 | 0.24 | 0.45 | 0.44 | 78 | 1007.3 |
| 20260830220056 | 67 | 60 | 7.0 | 10.4 | 0.24 | 0.45 | 0.44 | 80 | 1007.5 |
| 20260830214615 | 67 | 22 | 0.9 | 21.7 | 0.22 | 0.44 | 0.42 | 77 | 1008.9 |
| 20260830213054 | 74 | 290 | 4.3 | 10.4 | 0.00 | 0.22 | 0.20 | 58 | 1008.6 |
| 20260830211554 | 75 | 5 | 7.8 | 13.0 | 0.00 | 0.22 | 0.20 | 54 | 1007.1 |
| 20260830210100 | 77 | 344 | 7.8 | 11.3 | 0.00 | 0.22 | 0.20 | 51 | 1007.2 |
| 20260830204559 | 78 | 347 | 7.0 | 11.3 | 0.00 | 0.22 | 0.20 | 50 | 1007.0 |
| 20260830203050 | 79 | 317 | 6.1 | 11.3 | 0.00 | 0.22 | 0.20 | 50 | 1007.2 |
| 20260830201552 | 78 | 21 | 5.2 | 9.6 | 0.00 | 0.22 | 0.20 | 49 | 1007.6 |
| 20260830200048 | 78 | 34 | 7.8 | 10.4 | 0.00 | 0.22 | 0.20 | 49 | 1007.6 |
| 20260830194542 | 77 | 327 | 6.1 | 10.4 | 0.00 | 0.22 | 0.20 | 53 | 1007.9 |
| 20260830193041 | 76 | 355 | 7.8 | 10.4 | 0.00 | 0.22 | 0.20 | 54 | 1008.2 |
| 20260830191536 | 75 | 35 | 7.0 | 10.4 | 0.00 | 0.22 | 0.20 | 55 | 1008.5 |
| 20260830190044 | 75 | 5 | 8.7 | 12.2 | 0.00 | 0.22 | 0.20 | 59 | 1008.7 |
| 20260830184533 | 75 | 340 | 8.7 | 12.2 | 0.00 | 0.22 | 0.20 | 57 | 1008.7 |
| 20260830183035 | 74 | 5 | 6.1 | 13.0 | 0.00 | 0.22 | 0.20 | 59 | 1008.8 |
| 20260830181529 | 73 | 24 | 9.6 | 14.8 | 0.00 | 0.22 | 0.20 | 62 | 1009.0 |
| 20260830180028 | 73 | 5 | 8.7 | 13.0 | 0.00 | 0.22 | 0.20 | 63 | 1009.3 |
| 20260830174523 | 72 | 35 | 10.4 | 14.8 | 0.00 | 0.22 | 0.20 | 61 | 1009.3 |
| 20260830173021 | 71 | 54 | 10.4 | 13.9 | 0.00 | 0.22 | 0.20 | 65 | 1009.6 |
| 20260830171520 | 69 | 53 | 6.1 | 10.4 | 0.00 | 0.22 | 0.20 | 72 | 1009.6 |
| 20260830170009 | 68 | 14 | 7.0 | 13.0 | 0.00 | 0.22 | 0.20 | 73 | 1009.8 |
| 20260830164533 | 68 | 5 | 6.1 | 11.3 | 0.00 | 0.22 | 0.20 | 75 | 1010.1 |
| 20260830163002 | 67 | 13 | 1.7 | 7.0 | 0.00 | 0.22 | 0.20 | 80 | 1009.4 |
| 20260830161515 | 66 | 360 | 3.5 | 7.0 | 0.01 | 0.22 | 0.20 | 81 | 1009.0 |
| 20260830160024 | 65 | 22 | 2.6 | 7.0 | 0.04 | 0.22 | 0.20 | 81 | 1008.8 |
| 20260830154600 | 64 | 67 | 2.6 | 7.8 | 0.04 | 0.22 | 0.20 | 80 | 1009.1 |
| 20260830153035 | 64 | 44 | 4.3 | 6.1 | 0.04 | 0.22 | 0.20 | 78 | 1009.1 |
| 20260830151534 | 67 | 344 | 7.8 | 11.3 | 0.03 | 0.21 | 0.19 | 74 | 1009.8 |
| 20260830150032 | 67 | 333 | 8.7 | 13.0 | 0.00 | 0.18 | 0.16 | 73 | 1009.0 |
| 20260830144532 | 67 | 299 | 6.1 | 7.8 | 0.00 | 0.18 | 0.16 | 75 | 1009.1 |
| 20260830143016 | 66 | 336 | 0.9 | 3.5 | 0.00 | 0.18 | 0.16 | 79 | 1008.2 |
| 20260830141608 | 65 | 331 | 2.6 | 12.2 | 0.00 | 0.18 | 0.16 | 81 | 1008.1 |
| 20260830140022 | 64 | 309 | 1.7 | 4.3 | 0.00 | 0.18 | 0.16 | 85 | 1008.4 |
| 20260830134602 | 63 | 45 | 0.0 | 0.9 | 0.00 | 0.18 | 0.16 | 83 | 1007.5 |
| 20260830133010 | 63 | 42 | 4.3 | 7.0 | 0.15 | 0.18 | 0.16 | 81 | 1006.9 |
| 20260830131508 | 64 | 66 | 1.7 | 8.7 | 0.16 | 0.18 | 0.16 | 80 | 1006.8 |
| 20260830130006 | 63 | 60 | 7.0 | 9.6 | 0.16 | 0.18 | 0.16 | 82 | 1006.3 |
| 20260830124503 | 64 | 96 | 6.1 | 7.8 | 0.16 | 0.18 | 0.16 | 83 | 1006.3 |
| 20260830123100 | 66 | 315 | 11.3 | 16.5 | 0.01 | 0.03 | 0.01 | 79 | 1008.4 |
| 20260830121555 | 66 | 323 | 3.5 | 12.2 | 0.00 | 0.02 | 0.00 | 76 | 1007.0 |
| 20260830120056 | 66 | 74 | 0.0 | 1.7 | 0.00 | 0.02 | 0.00 | 76 | 1006.2 |
| 20260830114553 | 66 | 72 | 0.0 | 0.9 | 0.00 | 0.02 | 0.00 | 76 | 1005.9 |
| 20260830113059 | 66 | 72 | 0.9 | 2.6 | 0.00 | 0.02 | 0.00 | 75 | 1005.6 |
| 20260830111552 | 66 | 344 | 0.0 | 2.6 | 0.00 | 0.02 | 0.00 | 76 | 1005.8 |
| 20260830110049 | 66 | 344 | 0.0 | 0.9 | 0.00 | 0.02 | 0.00 | 76 | 1005.9 |
| 20260830104604 | 66 | 344 | 0.0 | 3.5 | 0.00 | 0.02 | 0.00 | 76 | 1005.7 |
| 20260830103047 | 67 | 344 | 0.0 | 4.3 | 0.00 | 0.02 | 0.00 | 72 | 1005.7 |
| 20260830101545 | 68 | 128 | 0.9 | 4.3 | 0.00 | 0.02 | 0.00 | 69 | 1005.5 |
| 20260830100144 | 68 | 127 | 0.9 | 7.8 | 0.00 | 0.02 | 0.00 | 69 | 1005.5 |
| 20260830094542 | 68 | 92 | 3.5 | 6.1 | 0.00 | 0.02 | 0.00 | 70 | 1005.6 |
| 20260830093044 | 68 | 344 | 0.0 | 7.0 | 0.00 | 0.02 | 0.00 | 69 | 1006.4 |
| 20260830091540 | 67 | 316 | 3.5 | 8.7 | 0.00 | 0.02 | 0.00 | 69 | 1006.7 |
| 20260830090038 | 67 | 247 | 0.0 | 0.0 | 0.00 | 0.02 | 0.00 | 69 | 1005.9 |
| 20260830084536 | 68 | 247 | 0.0 | 0.9 | 0.00 | 0.02 | 0.00 | 68 | 1005.8 |
| 20260830083053 | 68 | 247 | 0.0 | 0.9 | 0.00 | 0.02 | 0.00 | 68 | 1006.0 |
| 20260830081534 | 68 | 247 | 0.9 | 2.6 | 0.00 | 0.02 | 0.00 | 68 | 1005.9 |
| 20260830080033 | 68 | 246 | 0.0 | 1.7 | 0.00 | 0.02 | 0.00 | 67 | 1006.1 |
| 20260830074532 | 69 | 248 | 0.9 | 4.3 | 0.00 | 0.02 | 0.00 | 64 | 1006.1 |
| 20260830073030 | 69 | 57 | 0.0 | 1.7 | 0.00 | 0.02 | 0.00 | 64 | 1005.8 |
| 20260830071528 | 70 | 57 | 0.9 | 1.7 | 0.00 | 0.02 | 0.00 | 63 | 1005.4 |
| 20260830070026 | 70 | 57 | 0.0 | 3.5 | 0.00 | 0.02 | 0.00 | 60 | 1005.4 |
| 20260830063008 | 71 | 34 | 1.7 | 5.2 | 0.00 | 0.02 | 0.00 | 60 | 1005.9 |
| 20260830061512 | 71 | 57 | 0.0 | 1.7 | 0.00 | 0.02 | 0.00 | 60 | 1006.1 |